IV3ONZ Weather Reports


time (UTC)temp
F
wind
direction
speed
knots
gust
knots
rain 1hr
in
rain 24hr
in
rain mn
in
humidity
%
barometer
mb
20260906080004 82 96 7.0 13.9 0.00 0.00 0.00 45 1025.2
20260906075504 82 106 8.7 15.6 0.00 0.00 0.00 45 1025.4
20260906075003 81 115 8.7 15.6 0.00 0.00 0.00 46 1025.4
20260906074504 81 118 9.6 15.6 0.00 0.00 0.00 46 1025.5
20260906074003 81 112 7.0 13.9 0.00 0.00 0.00 45 1025.1
20260906073503 82 95 4.3 9.6 0.00 0.00 0.00 45 1025.0
20260906073003 82 82 3.5 9.6 0.00 0.00 0.00 46 1025.1
20260906072716 81 82 4.3 9.6 0.00 0.00 0.00 47 1025.1
20260906072003 81 87 6.1 13.0 0.00 0.00 0.00 46 1025.0
20260906071503 81 80 6.1 13.0 0.00 0.00 0.00 46 1025.0
20260906071004 81 80 6.1 13.9 0.00 0.00 0.00 47 1024.7
20260906070503 81 83 7.0 13.9 0.00 0.00 0.00 47 1024.4
20260906070004 81 79 7.0 15.6 0.00 0.00 0.00 46 1024.7
20260906065503 81 76 7.8 15.6 0.00 0.00 0.00 46 1024.6
20260906065003 80 72 8.7 15.6 0.00 0.00 0.00 47 1024.4
20260906064503 80 73 8.7 16.5 0.00 0.00 0.00 46 1024.3
20260906064003 80 76 7.8 16.5 0.00 0.00 0.00 47 1024.3
20260906063504 80 73 7.8 13.9 0.00 0.00 0.00 48 1024.4
20260906063214 80 73 7.8 13.9 0.00 0.00 0.00 47 1024.3
20260906062716 80 72 8.7 16.5 0.00 0.00 0.00 47 1024.1
20260906062003 80 77 9.6 21.7 0.00 0.00 0.00 47 1024.4
20260906061504 80 77 10.4 21.7 0.00 0.00 0.00 47 1024.3
20260906061003 80 75 11.3 20.9 0.00 0.00 0.00 48 1024.2
20260906060504 80 76 9.6 20.9 0.00 0.00 0.00 48 1024.5
20260906060003 79 80 8.7 18.2 0.00 0.00 0.00 48 1024.5
20260906055714 79 82 8.7 18.2 0.00 0.00 0.00 48 1024.3
20260906055003 79 81 9.6 20.9 0.00 0.00 0.00 48 1024.3
20260906054504 79 81 9.6 20.9 0.00 0.00 0.00 48 1024.1
20260906054003 79 75 8.7 19.1 0.00 0.00 0.00 48 1023.8
20260906053716 79 78 8.7 19.1 0.00 0.00 0.00 48 1024.1
20260906053003 79 81 9.6 19.1 0.00 0.00 0.00 47 1024.0
20260906052503 79 75 8.7 15.6 0.00 0.00 0.00 48 1023.8
20260906052003 79 79 8.7 15.6 0.00 0.00 0.00 47 1024.0
20260906051503 79 82 7.8 15.6 0.00 0.00 0.00 47 1023.9
20260906051004 78 79 8.7 16.5 0.00 0.00 0.00 47 1023.7
20260906050503 79 78 8.7 20.0 0.00 0.00 0.00 48 1023.8
20260906050003 79 79 7.8 20.0 0.00 0.00 0.00 47 1023.7
20260906045504 78 82 7.8 16.5 0.00 0.00 0.00 48 1023.9
20260906045003 79 84 8.7 16.5 0.00 0.00 0.00 48 1023.7
20260906044503 78 86 7.0 16.5 0.00 0.00 0.00 48 1023.7
20260906044003 78 80 5.2 13.0 0.00 0.00 0.00 48 1023.5
20260906043717 78 79 5.2 11.3 0.00 0.00 0.00 49 1023.8
20260906043005 78 79 5.2 11.3 0.00 0.00 0.00 49 1023.6
20260906042504 78 78 5.2 12.2 0.00 0.00 0.00 50 1023.5
20260906042216 78 75 5.2 12.2 0.00 0.00 0.00 50 1023.8
20260906041714 78 74 6.1 12.2 0.00 0.00 0.00 50 1023.7
20260906041006 78 81 3.5 11.3 0.00 0.00 0.00 50 1023.6
20260906040503 78 80 1.7 7.8 0.00 0.00 0.00 51 1023.6
20260906040004 78 90 1.7 5.2 0.00 0.00 0.00 51 1023.4
20260906035503 78 94 0.9 2.6 0.00 0.00 0.00 52 1023.4
20260906035213 78 103 0.9 2.6 0.00 0.00 0.00 52 1023.5
20260906034503 78 108 0.9 5.2 0.00 0.00 0.00 52 1023.2
20260906034004 78 104 1.7 6.1 0.00 0.00 0.00 52 1023.2
20260906033504 78 92 3.5 9.6 0.00 0.00 0.00 51 1023.3
20260906033003 78 85 4.3 9.6 0.00 0.00 0.00 51 1023.3
20260906032503 78 85 5.2 11.3 0.00 0.00 0.00 51 1023.1
20260906032003 78 86 6.1 13.9 0.00 0.00 0.00 51 1023.1
20260906031504 79 87 7.0 13.9 0.00 0.00 0.00 51 1023.1
20260906031004 79 90 7.8 15.6 0.00 0.00 0.00 51 1023.0
20260906030503 79 89 7.8 15.6 0.00 0.00 0.00 50 1022.9
20260906030004 79 84 7.0 13.0 0.00 0.00 0.00 50 1023.1
20260906025503 79 85 7.0 13.0 0.00 0.00 0.00 50 1022.8
20260906025004 79 93 5.2 12.2 0.00 0.00 0.00 50 1022.8
20260906024503 79 90 4.3 12.2 0.00 0.00 0.00 50 1022.9
20260906024003 79 80 5.2 12.2 0.00 0.00 0.00 49 1022.8
20260906023504 79 75 6.1 12.2 0.00 0.00 0.00 49 1023.0
20260906023003 80 72 5.2 12.2 0.00 0.00 0.00 49 1022.7
20260906022503 80 73 6.1 12.2 0.00 0.00 0.00 48 1022.7
20260906022003 80 74 6.1 13.0 0.00 0.00 0.00 49 1022.7
20260906021503 80 77 6.1 13.9 0.00 0.00 0.00 48 1022.7
20260906021003 80 76 7.0 15.6 0.00 0.00 0.00 48 1022.8
20260906020504 81 78 8.7 18.2 0.00 0.00 0.00 47 1022.7
20260906020004 81 86 7.8 18.2 0.00 0.00 0.00 47 1022.8
20260906015504 80 87 6.1 12.2 0.00 0.00 0.00 47 1022.6
20260906015215 80 86 6.1 13.0 0.00 0.00 0.00 47 1022.8
20260906014503 80 77 7.0 16.5 0.00 0.00 0.00 48 1022.7
20260906014005 80 81 7.0 16.5 0.00 0.00 0.00 47 1022.5
20260906013503 81 82 7.8 18.2 0.00 0.00 0.00 47 1022.5
20260906013003 81 82 7.8 18.2 0.00 0.00 0.00 47 1022.7
20260906012503 81 86 7.8 15.6 0.00 0.00 0.00 47 1022.7
20260906012003 81 84 8.7 15.6 0.00 0.00 0.00 47 1022.7
20260906011716 81 78 8.7 15.6 0.00 0.00 0.00 46 1022.5
20260906011003 82 81 8.7 21.7 0.00 0.00 0.00 46 1022.8
20260906010503 82 82 8.7 21.7 0.00 0.00 0.00 46 1022.8
20260906010215 81 81 9.6 21.7 0.00 0.00 0.00 45 1022.6
20260906005503 81 85 9.6 18.2 0.00 0.00 0.00 46 1022.6
20260906005003 81 83 8.7 18.2 0.00 0.00 0.00 46 1022.6
20260906004504 81 81 7.8 15.6 0.00 0.00 0.00 46 1022.7
20260906004003 81 79 7.8 15.6 0.00 0.00 0.00 47 1022.7
20260906003503 81 82 6.1 13.0 0.00 0.00 0.00 48 1022.6
20260906003004 80 85 4.3 11.3 0.00 0.00 0.00 50 1022.7
20260906002715 79 87 3.5 11.3 0.00 0.00 0.00 50 1022.6
20260906002213 79 82 3.5 7.8 0.00 0.00 0.00 50 1022.5
20260906001503 80 83 4.3 7.8 0.00 0.00 0.00 50 1022.8
20260906001003 80 78 4.3 11.3 0.00 0.00 0.00 51 1022.7
20260906000505 80 71 5.2 12.2 0.00 0.00 0.00 50 1022.8
20260906000011 80 70 5.2 13.0 0.00 0.00 0.00 51 1022.5
20260905235504 80 71 6.1 13.0 0.00 0.00 0.00 50 1022.4
20260905235003 80 71 7.0 13.0 0.00 0.00 0.00 51 1022.4
20260905234503 80 77 7.0 13.0 0.00 0.00 0.00 51 1022.5
20260905234003 80 82 6.1 13.0 0.00 0.00 0.00 51 1022.3
20260905233715 80 84 7.0 13.0 0.00 0.00 0.00 51 1022.2
20260905233004 80 77 7.0 12.2 0.00 0.00 0.00 51 1022.0
20260905232503 80 75 6.1 12.2 0.00 0.00 0.00 51 1022.2
20260905232003 80 74 6.1 13.0 0.00 0.00 0.00 51 1022.0
20260905231503 80 70 6.1 13.0 0.00 0.00 0.00 52 1022.1
20260905231003 80 71 6.1 13.0 0.00 0.00 0.00 51 1022.0
20260905230503 80 75 6.1 11.3 0.00 0.00 0.00 52 1022.0
20260905230004 79 76 6.1 13.0 0.00 0.00 0.00 52 1022.3
20260905225714 79 81 7.0 13.0 0.00 0.00 0.00 52 1022.1
20260905225003 80 92 7.0 13.0 0.00 0.00 0.00 51 1022.3
20260905224503 80 89 7.0 13.0 0.00 0.00 0.00 51 1022.2
20260905224004 80 92 7.0 13.0 0.00 0.00 0.00 51 1022.2
20260905223503 80 94 6.1 11.3 0.00 0.00 0.00 52 1022.1
20260905223214 80 91 6.1 11.3 0.00 0.00 0.00 52 1022.1
20260905222716 80 87 5.2 9.6 0.00 0.00 0.00 52 1022.0
20260905222003 79 92 4.3 7.8 0.00 0.00 0.00 53 1022.0
20260905221503 79 91 3.5 7.0 0.00 0.00 0.00 54 1022.1
20260905221003 79 85 3.5 7.0 0.00 0.00 0.00 54 1021.7
20260905220504 79 86 3.5 7.8 0.00 0.00 0.00 55 1021.7
20260905220004 79 92 3.5 7.8 0.00 0.00 0.00 54 1021.7
20260905215504 79 103 3.5 7.0 0.00 0.00 0.00 54 1022.0
20260905215004 79 111 2.6 6.1 0.00 0.00 0.00 55 1021.9
20260905214504 78 114 0.9 5.2 0.00 0.00 0.00 56 1022.1
20260905214213 79 92 0.9 5.2 0.00 0.00 0.00 56 1022.0
20260905213504 78 108 0.9 3.5 0.00 0.00 0.00 56 1022.2
20260905213004 79 117 0.9 7.0 0.00 0.00 0.00 56 1021.9
20260905212503 79 87 2.6 7.8 0.00 0.00 0.00 54 1022.2
20260905212003 80 74 4.3 7.8 0.00 0.00 0.00 53 1021.9
20260905211504 80 71 4.3 8.7 0.00 0.00 0.00 53 1021.9
20260905211003 80 66 5.2 8.7 0.00 0.00 0.00 53 1021.9
20260905210503 80 68 5.2 11.3 0.00 0.00 0.00 53 1021.8
20260905210217 80 71 4.3 11.3 0.00 0.00 0.00 54 1022.0
20260905205503 80 73 3.5 7.8 0.00 0.00 0.00 54 1021.9
20260905205218 79 76 2.6 7.8 0.00 0.00 0.00 54 1021.9
20260905204504 79 70 1.7 7.8 0.00 0.00 0.00 55 1021.8
20260905204004 78 88 0.9 5.2 0.00 0.00 0.00 56 1021.8
20260905203503 77 108 0.0 1.7 0.00 0.00 0.00 59 1021.9
20260905203004 77 157 0.9 1.7 0.00 0.00 0.00 60 1021.8
20260905202713 77 163 0.9 1.7 0.00 0.00 0.00 60 1021.8
20260905202003 78 63 0.9 1.7 0.00 0.00 0.00 59 1021.5
20260905201503 78 93 0.0 0.9 0.00 0.00 0.00 58 1021.3
20260905201005 78 102 0.0 0.9 0.00 0.00 0.00 59 1021.3
20260905200715 78 107 0.0 0.9 0.00 0.00 0.00 59 1021.4
20260905200003 78 133 0.0 0.9 0.00 0.00 0.00 59 1021.2
20260905195715 79 135 0.0 0.9 0.00 0.00 0.00 59 1021.4
20260905195004 79 139 0.0 0.9 0.00 0.00 0.00 57 1021.3
20260905194503 80 104 0.0 3.5 0.00 0.00 0.00 55 1021.3
20260905194003 80 92 0.9 6.1 0.00 0.00 0.00 54 1021.2
20260905193504 80 96 0.9 6.1 0.00 0.00 0.00 54 1021.3
20260905193004 80 126 0.0 1.7 0.00 0.00 0.00 54 1021.1
20260905192503 80 129 0.0 1.7 0.00 0.00 0.00 53 1021.4
20260905192004 80 115 0.0 2.6 0.00 0.00 0.00 53 1021.1
20260905191504 80 97 0.9 3.5 0.00 0.00 0.00 53 1021.2
20260905191003 80 102 0.9 3.5 0.00 0.00 0.00 53 1021.0
20260905190503 80 102 0.9 2.6 0.00 0.00 0.00 54 1021.0
20260905190004 80 92 1.7 2.6 0.00 0.00 0.00 53 1020.9
20260905185504 80 113 0.9 2.6 0.00 0.00 0.00 54 1021.0
20260905185003 80 133 1.7 3.5 0.00 0.00 0.00 54 1020.9
20260905184504 81 131 1.7 3.5 0.00 0.00 0.00 54 1020.6
20260905184215 81 140 1.7 3.5 0.00 0.00 0.00 53 1020.6
20260905183504 81 139 2.6 6.1 0.00 0.00 0.00 52 1020.6
20260905183003 82 113 3.5 7.0 0.00 0.00 0.00 52 1020.6
20260905182503 82 107 3.5 7.0 0.00 0.00 0.00 52 1020.3
20260905182004 81 117 2.6 7.0 0.00 0.00 0.00 53 1020.3
20260905181504 81 131 2.6 5.2 0.00 0.00 0.00 54 1020.4
20260905181004 81 130 2.6 6.1 0.00 0.00 0.00 55 1020.4
20260905180504 81 131 2.6 6.1 0.00 0.00 0.00 57 1020.2
20260905180214 81 131 3.5 6.1 0.00 0.00 0.00 59 1020.0
20260905175717 81 131 2.6 5.2 0.00 0.00 0.00 64 1020.0
20260905175003 81 113 1.7 2.6 0.00 0.00 0.00 74 1020.1
20260905174503 81 112 1.7 2.6 0.00 0.00 0.00 75 1020.1
20260905174216 81 117 0.9 2.6 0.00 0.00 0.00 75 1020.1
20260905173714 81 122 0.9 2.6 0.00 0.00 0.00 75 1019.9
20260905173004 82 133 1.7 3.5 0.00 0.00 0.00 74 1020.0
20260905172504 82 133 2.6 3.5 0.00 0.00 0.00 72 1019.9
20260905172003 82 118 2.6 5.2 0.00 0.00 0.00 71 1019.7
20260905171504 82 121 2.6 6.1 0.00 0.00 0.00 70 1019.5
20260905171003 83 144 2.6 6.1 0.00 0.00 0.00 69 1019.5
20260905170504 83 160 2.6 5.2 0.00 0.00 0.00 69 1019.4
20260905170004 83 165 2.6 5.2 0.00 0.00 0.00 69 1019.6
20260905165503 84 176 2.6 5.2 0.00 0.00 0.00 67 1019.5
20260905165003 84 171 1.7 5.2 0.00 0.00 0.00 67 1019.5
20260905164503 84 168 1.7 5.2 0.00 0.00 0.00 66 1019.3
20260905164003 84 183 2.6 5.2 0.00 0.00 0.00 65 1019.3
20260905163503 84 201 3.5 6.1 0.00 0.00 0.00 64 1019.2
20260905163003 84 204 3.5 6.1 0.00 0.00 0.00 65 1019.2
20260905162715 84 201 3.5 6.1 0.00 0.00 0.00 65 1019.0
20260905162003 85 169 2.6 5.2 0.00 0.00 0.00 64 1019.1
20260905161716 85 155 2.6 6.1 0.00 0.00 0.00 64 1018.9
20260905161003 85 148 3.5 6.1 0.00 0.00 0.00 65 1018.9
20260905160503 85 147 3.5 7.0 0.00 0.00 0.00 65 1018.9
20260905160215 85 141 3.5 7.8 0.00 0.00 0.00 64 1019.0
20260905155504 85 137 3.5 7.8 0.00 0.00 0.00 64 1019.1
20260905155003 86 140 3.5 7.0 0.00 0.00 0.00 62 1018.8
20260905154503 85 146 3.5 7.0 0.00 0.00 0.00 63 1018.9
20260905154003 86 155 3.5 7.0 0.00 0.00 0.00 62 1018.9
20260905153503 85 152 3.5 7.0 0.00 0.00 0.00 62 1018.7
20260905153004 87 149 3.5 7.0 0.00 0.00 0.00 60 1019.0
20260905152503 87 156 3.5 7.0 0.00 0.00 0.00 61 1019.0
20260905152003 87 168 3.5 7.0 0.00 0.00 0.00 60 1018.9
20260905151504 87 183 3.5 7.0 0.00 0.00 0.00 62 1019.0
20260905151003 87 192 3.5 7.0 0.00 0.00 0.00 60 1018.9
20260905150503 87 190 3.5 6.1 0.00 0.00 0.00 60 1018.8
20260905150004 87 171 3.5 7.0 0.00 0.00 0.00 59 1018.9
20260905145503 87 166 3.5 7.8 0.00 0.00 0.00 61 1018.8
20260905145003 87 185 4.3 7.8 0.00 0.00 0.00 59 1018.9
20260905144503 87 192 3.5 7.0 0.00 0.00 0.00 59 1018.8
20260905144003 88 191 3.5 7.8 0.00 0.00 0.00 59 1018.7
20260905143715 88 187 3.5 7.8 0.00 0.00 0.00 59 1018.7
20260905143003 88 171 3.5 7.0 0.00 0.00 0.00 60 1018.8
20260905142503 88 191 3.5 7.0 0.00 0.00 0.00 60 1018.5
20260905142003 87 213 3.5 7.0 0.00 0.00 0.00 60 1018.7
20260905141504 89 214 2.6 6.1 0.00 0.00 0.00 54 1018.8
20260905141003 90 201 1.7 6.1 0.00 0.00 0.00 54 1018.8
20260905140503 88 206 2.6 7.0 0.00 0.00 0.00 54 1018.8
20260905140004 88 213 3.5 7.0 0.00 0.00 0.00 54 1018.8
20260905135503 89 212 3.5 7.0 0.00 0.00 0.00 53 1018.7
20260905135003 89 213 3.5 6.1 0.00 0.00 0.00 54 1018.8
20260905134715 89 213 2.6 6.1 0.00 0.00 0.00 55 1018.7
20260905134003 89 183 2.6 7.0 0.00 0.00 0.00 54 1018.8
20260905133716 88 181 3.5 7.0 0.00 0.00 0.00 57 1018.9
20260905133003 89 197 2.6 6.1 0.00 0.00 0.00 55 1018.8
20260905132717 89 187 2.6 6.1 0.00 0.00 0.00 56 1018.7
20260905132003 88 197 1.7 5.2 0.00 0.00 0.00 54 1018.9
20260905131504 89 153 1.7 5.2 0.00 0.00 0.00 51 1018.9
20260905131003 88 146 2.6 5.2 0.00 0.00 0.00 53 1018.9
20260905130503 88 155 2.6 6.1 0.00 0.00 0.00 52 1018.9
20260905130006 87 154 2.6 6.1 0.00 0.00 0.00 55 1019.1
20260905125503 89 181 1.7 6.1 0.00 0.00 0.00 52 1019.1
20260905125003 88 205 2.6 7.0 0.00 0.00 0.00 50 1019.1
20260905124503 88 198 3.5 7.0 0.00 0.00 0.00 53 1019.2
20260905124003 88 187 2.6 7.0 0.00 0.00 0.00 54 1019.2
20260905123717 88 188 2.6 6.1 0.00 0.00 0.00 54 1019.1
20260905123215 88 208 2.6 6.1 0.00 0.00 0.00 51 1019.4
20260905122503 90 162 1.7 3.5 0.00 0.00 0.00 51 1019.4
20260905122003 89 167 0.9 3.5 0.00 0.00 0.00 52 1019.4
20260905121503 89 186 1.7 5.2 0.00 0.00 0.00 51 1019.5
20260905121003 87 201 2.6 5.2 0.00 0.00 0.00 53 1019.2
20260905120503 88 227 2.6 6.1 0.00 0.00 0.00 53 1019.5
20260905120004 87 238 2.6 6.1 0.00 0.00 0.00 53 1019.4
20260905115503 88 187 2.6 6.1 0.00 0.00 0.00 54 1019.5
20260905115003 88 194 2.6 7.0 0.00 0.00 0.00 52 1019.7
20260905114503 87 245 2.6 7.0 0.00 0.00 0.00 53 1019.5
20260905114003 87 223 1.7 6.1 0.00 0.00 0.00 52 1019.7
20260905113717 88 211 2.6 6.1 0.00 0.00 0.00 51 1019.6
20260905113215 87 191 2.6 6.1 0.00 0.00 0.00 49 1019.5
20260905112503 88 210 1.7 5.2 0.00 0.00 0.00 46 1019.5
20260905112003 88 170 1.7 6.1 0.00 0.00 0.00 46 1019.6
20260905111503 87 154 1.7 6.1 0.00 0.00 0.00 48 1019.5
20260905111217 87 175 2.6 6.1 0.00 0.00 0.00 49 1019.5
20260905110503 87 193 1.7 5.2 0.00 0.00 0.00 47 1019.8
20260905110003 88 200 2.6 5.2 0.00 0.00 0.00 42 1019.7
20260905105503 86 229 2.6 5.2 0.00 0.00 0.00 42 1019.8
20260905105219 86 229 2.6 5.2 0.00 0.00 0.00 41 1019.9
20260905104503 87 145 1.7 3.5 0.00 0.00 0.00 39 1019.7
20260905104003 87 161 1.7 3.5 0.00 0.00 0.00 39 1019.7
20260905103503 86 187 2.6 3.5 0.00 0.00 0.00 39 1019.7
20260905103216 86 187 2.6 3.5 0.00 0.00 0.00 39 1019.3
20260905102504 86 176 1.7 3.5 0.00 0.00 0.00 38 1019.8
20260905102003 86 159 0.9 2.6 0.00 0.00 0.00 37 1019.7
20260905101503 86 147 0.9 3.5 0.00 0.00 0.00 38 1019.9
20260905101004 86 168 2.6 5.2 0.00 0.00 0.00 37 1019.9
20260905100503 86 171 2.6 5.2 0.00 0.00 0.00 38 1019.6
20260905100003 87 161 0.9 3.5 0.00 0.00 0.00 37 1019.8
20260905095503 86 179 0.9 3.5 0.00 0.00 0.00 39 1019.7
20260905095003 86 152 1.7 3.5 0.00 0.00 0.00 44 1019.7
20260905094503 85 129 1.7 3.5 0.00 0.00 0.00 45 1019.8
20260905094216 87 151 1.7 3.5 0.00 0.00 0.00 44 1019.7
20260905093503 86 185 1.7 3.5 0.00 0.00 0.00 45 1019.9
20260905093004 85 208 1.7 5.2 0.00 0.00 0.00 45 1019.7
20260905092715 85 207 1.7 5.2 0.00 0.00 0.00 46 1019.8
20260905092003 85 195 0.9 2.6 0.00 0.00 0.00 47 1019.9
20260905091503 85 172 0.9 3.5 0.00 0.00 0.00 43 1019.6
20260905091214 85 169 0.9 3.5 0.00 0.00 0.00 45 1019.8
20260905090503 85 152 0.9 3.5 0.00 0.00 0.00 46 1019.7
20260905090003 85 168 1.7 3.5 0.00 0.00 0.00 45 1019.4
20260905085503 84 176 1.7 3.5 0.00 0.00 0.00 45 1019.8
20260905085003 86 167 0.9 2.6 0.00 0.00 0.00 44 1019.7
20260905084503 85 161 0.9 2.6 0.00 0.00 0.00 40 1019.6
20260905084004 86 149 0.9 2.6 0.00 0.00 0.00 39 1019.7
20260905083503 85 150 0.9 2.6 0.00 0.00 0.00 40 1019.5
20260905083004 85 172 0.9 3.5 0.00 0.00 0.00 43 1019.5
20260905082715 84 169 0.9 3.5 0.00 0.00 0.00 47 1019.7
20260905082003 85 139 0.0 1.7 0.00 0.00 0.00 46 1019.6
20260905081503 82 137 0.0 2.6 0.00 0.00 0.00 49 1019.6
20260905081003 83 330 0.9 2.6 0.00 0.00 0.00 51 1019.6
20260905080503 82 304 1.7 2.6 0.00 0.00 0.00 52 1019.4